Regional Weather Roundup
Issued by NWS

Home | Current Version | Previous Version | Graphics & Text | Print | Product List | Glossary Off
Versions: 1 2 3 4 5 6 7 8 9 10 11 12 13 14 15 16 17 18 19 20 21 22 23 24 25 26 27 28 29 30 31 32 33 34 35 36 37 38 39 40 41 42 43 44 45 46 47 48 49 50

000
ASUS43 KTOP 170359
RWRKS

WEATHER ROUNDUP FOR KANSAS
NATIONAL WEATHER SERVICE GOODLAND KS
1000 PM CST MON JAN 16 2017

NOTE:  "FAIR" INDICATES FEW OR NO CLOUDS BELOW 12,000 FEET WITH NO
SIGNIFICANT WEATHER AND/OR OBSTRUCTIONS TO VISIBILITY.

KSZ001>006-013>018-027>032-041>047-170500-
NORTHWEST KANSAS

CITY           SKY/WX    TMP DP  RH WIND       PRES   REMARKS
GOODLAND       CLOUDY    32  28  85 NW10      30.08R WCI  24
HAYS           CLOUDY    34  32  92 W7        30.05R
HILL CITY      PTCLDY    34  32  92 NW8       30.06R
RUSSELL        CLOUDY    33  32  96 NW8       30.02R
$$

KSZ061>065-074>080-084>089-170500-
SOUTHWEST KANSAS

CITY           SKY/WX    TMP DP  RH WIND       PRES   REMARKS
DODGE CITY     CLOUDY    33  32  96 NW10      30.06R WCI  25
ELKHART          N/A     32  26  78 NW10        N/A  WCI  24
GARDEN CITY    PTCLDY    33  31  92 NW13      30.07R WCI  24
GREAT BEND     MIX PCPN  33  32  96 NW10      30.05R WCI  25
LIBERAL        CLOUDY    36  30  80 N13       30.09R WCI  27
$$

KSZ066>073-081>083-090>101-170500-
SOUTHEAST KANSAS

CITY           SKY/WX    TMP DP  RH WIND       PRES   REMARKS
CHANUTE        CLOUDY    40  36  86 W9        29.99S
HUTCHINSON     CLOUDY    35  32  88 NW8       30.02R
MEDICINE LODGE   N/A     35  31  85 NW12      30.04R WCI  27
NEWTON         CLOUDY    34  32  92 NW13      30.01R WCI  25
PARSONS        CLOUDY    40  37  89 W8        30.01R
WICHITA INTL   CLOUDY    36  34  92 NW14      30.02R WCI  27
WICHITA JABRA  CLOUDY    35  33  92 NW9       30.01R
WICHITA MCCONL MOCLDY    36  32  87 NW12      30.00S WCI  27
WINFIELD       CLOUDY    37  34  89 W10       30.04R WCI  30
$$

KSZ007>012-019>026-033>040-048>060-102>105-170500-
NORTHEAST KANSAS

CITY           SKY/WX    TMP DP  RH WIND       PRES   REMARKS
CONCORDIA      CLOUDY    33  33 100 NW10      29.99R WCI  25
EMPORIA        CLOUDY    34  33  96 W12       29.98R WCI  25
LAWRENCE       CLOUDY    36  35  96 W14       29.95R WCI  27
MANHATTAN      CLOUDY    35  33  92 W5        30.00R
OLATHE IND     CLOUDY    38  36  92 W13       29.93S WCI  30
OLATHE EXE     CLOUDY    38  38 100 W10       29.92S WCI  31
SALINA         CLOUDY    34  32  92 NW9         N/A
TOPEKA BILLARD CLOUDY    36  32  85 W9        29.97R
TOPEKA FORBES  CLOUDY    36  34  92 NW15      29.95S WCI  27
$$



USA.gov is the U.S. government's official web portal to all federal, state and local government web resources and services.